Zurück zum Katalog

ANSAT-1

AktivWissenschaftSSO
NORAD 67262·PAYLOAD·🇷🇺 Russia
Dieser Satellitenname wurde noch nicht durch offizielle Quellen bestätigt.

Gestartet Dec 28, 2025 von Vostochny Cosmodrome

Loading…

Nächste Überflüge (nächste 24 Stunden)

TLE

AktuellSource: Space-Track

Epoche: Sep 14, 2026, 10:53 UTC

1 67262U 25313Q   26257.45392749  .00005787  00000-0  23190-3 0  9997
2 67262  97.3864 331.0769 0014780  59.4657 300.8038 15.25319397 39567

Verfolge ANSAT-1 in Echtzeit mit AllMySat

Download on the App Store